Location: Borgo
(42.3939°N, 9.2791°E)
Time: 01:03:47
(UTC+00:00)

Okean O Rocket - Pass Details

Date: 24 January 2021
Orbit: 622 x 645 km, 98.2° (Epoch: 08 March)

Event Time Altitude Azimuth Distance (km) Brightness Sun altitude
Rises 17:58:25 0° 200° (SSW) 2,939 5.5 -16.9°
Reaches altitude 10° 18:01:04 10° 216° (SW) 2,033 4.9 -17.4°
Maximum altitude 18:04:27 21° 266° (W) 1,433 4.4 -18.0°
Drops below altitude 10° 18:07:50 10° 316° (NW) 2,037 4.7 -18.6°
Sets 18:10:30 0° 332° (NNW) 2,947 5.3 -19.1°
